EHI
0 0 0 0 0 0 0 0 0 0 0 0 0 0 0 0 0 0 0 0 0 0 0 0 0 0 0 1 2 3 4 6 6 5 5 9 13 17 15 9 4 1 0 0
0 0 0 0 0 0 0 0 0 0 0 0 0 0 0 0 0 0 0 0 0 0 0 0 0 0 0 0 1 1 2 3 4 4 5 7 11 17 20 16 8 3 1 1
0 0 0 0 0 0 0 0 0 0 0 0 0 0 0 0 0 0 0 0 0 0 0 0 0 0 0 0 0 0 0 1 1 2 2 3 7 15 24 22 14 6 3 2
0 0 0 0 0 0 0 0 0 0 0 0 0 0 0 0 0 0 0 0 0 0 0 0 0 0 0 0 0 0 0 0 0 0 0 0 3 9 17 20 15 9 4 2
0 0 0 0 0 0 0 0 0 0 0 0 0 0 0 0 0 0 0 0 0 0 0 0 0 0 0 0 0 0 0 0 0 0 0 0 1 3 7 12 13 10 6 4
0 0 0 0 0 0 0 0 0 0 0 0 0 0 0 0 0 0 0 0 0 0 0 0 0 0 0 0 0 0 0 0 0 0 0 0 0 0 2 6 9 9 6 5
0 0 0 0 0 0 0 0 0 0 0 0 0 0 0 0 0 0 0 0 0 0 0 0 0 0 0 0 0 0 0 0 0 0 0 0 0 0 0 2 5 6 5 4
0 0 0 0 0 0 0 0 0 0 0 0 0 0 0 0 0 0 0 0 0 0 0 0 0 0 0 0 0 0 0 0 0 0 0 0 0 0 0 0 1 2 2 1
0 0 0 0 0 0 0 0 0 0 0 0 0 0 0 0 0 0 0 0 0 0 0 0 0 0 0 0 0 0 0 0 0 0 0 0 0 0 0 0 0 0 0 0
0 0 0 0 0 0 0 0 0 0 0 0 0 0 0 0 0 0 0 0 0 0 0 0 0 0 0 0 0 0 0 0 0 0 0 0 0 0 0 0 0 0 0 0
0 0 0 0 0 0 0 0 0 0 0 0 0 0 0 0 0 0 0 0 0 0 0 0 0 0 0 0 0 0 0 0 0 0 0 0 0 0 0 0 0 0 0 0
0 0 0 0 0 0 0 0 0 0 0 0 0 0 0 0 0 0 0 0 0 0 0 0 0 0 0 0 0 0 0 0 0 0 0 0 0 0 0 0 0 0 0 0
0 0 0 0 0 0 0 0 0 0 0 0 0 0 0 0 0 0 0 0 0 0 0 0 0 0 0 0 0 0 0 0 0 0 0 0 0 0 0 0 0 0 0 0
0 0 0 0 0 0 0 0 0 0 0 0 0 0 0 0 0 0 0 0 0 0 0 0 0 0 0 0 0 0 0 0 0 0 0 0 0 0 0 0 0 0 0 0
0 0 0 0 0 0 0 0 0 0 0 0 0 0 0 0 0 0 0 0 0 0 0 0 0 0 0 0 0 0 0 0 0 0 0 0 0 0 0 0 0 0 0 0
0 0 0 0 0 0 0 0 0 0 0 0 0 0 0 0 0 0 0 0 0 0 0 0 0 0 0 0 0 0 0 0 0 0 0 0 0 0 0 0 0 0 0 0
0 0 0 0 0 0 0 0 0 0 0 0 0 0 0 0 0 0 0 0 0 0 0 0 0 0 0 0 0 0 0 0 0 0 0 0 0 0 0 0 0 0 0 0
0 0 0 0 0 0 0 0 0 0 0 0 0 0 0 0 0 0 0 0 0 0 0 0 0 0 0 0 0 0 0 0 0 0 0 0 0 0 0 0 0 0 0 0
0 0 0 0 0 0 0 0 0 0 0 0 0 0 0 0 0 0 0 0 0 0 0 0 0 0 0 0 0 0 0 0 0 0 0 0 0 0 0 0 0 0 0 0
0 0 0 0 0 0 0 0 0 0 0 0 0 0 0 0 0 0 0 0 0 0 0 0 0 0 0 0 0 0 0 0 0 0 0 0 0 0 0 0 0 0 0 0
0 0 0 0 0 0 0 0 0 0 0 0 0 0 0 0 0 0 0 0 0 0 0 0 0 0 0 0 0 0 0 0 0 0 0 0 0 0 0 0 0 0 0 0
0 0 0 0 0 0 0 0 0 0 0 0 0 0 0 0 0 0 0 0 0 0 0 0 0 0 0 0 0 0 0 0 0 0 0 0 0 0 0 0 0 0 0 0
0 0 0 0 0 0 0 0 0 0 0 0 0 0 0 0 0 0 0 0 0 0 0 0 0 0 0 0 0 0 0 0 0 0 0 0 0 0 0 0 0 0 0 0
0 0 0 0 0 0 0 0 0 0 0 0 0 0 0 0 0 0 0 0 0 0 0 0 0 0 0 0 0 0 0 0 0 0 0 0 0 0 0 0 0 0 0 0
0 0 0 0 0 0 0 0 0 0 0 0 0 0 0 0 0 0 0 0 0 0 0 0 0 0 0 0 0 0 0 0 0 0 0 0 0 0 0 0 0 0 0 0
0 0 0 0 0 0 0 0 0 0 0 0 0 0 0 0 0 0 0 0 0 0 0 0 0 0 0 0 0 0 0 0 0 0 0 0 0 0 0 0 0 0 0 0
Wind_Speed
6 9 7 7 7 5 4 5 3 2 5 4 3 5 9 13 15 16 15 14 14 12 11 11 11 12 12 12 11 10 10 9 6 3 2 2 4 4 5 5 6 7 7 7
9 9 5 6 10 8 7 6 4 4 5 4 7 12 12 16 17 16 17 17 16 16 16 14 14 13 13 12 11 10 10 9 7 5 3 3 3 3 4 3 4 5 5 6
10 3 6 11 13 9 5 3 3 4 5 5 6 7 11 11 15 17 17 16 16 16 15 15 15 13 12 12 12 11 10 10 9 8 4 2 1 1 2 2 2 3 3 4
8 6 9 11 9 7 4 5 5 4 3 3 3 3 7 10 14 18 17 16 16 16 14 13 13 13 13 12 11 10 10 10 9 8 5 4 3 3 5 5 4 3 3 4
5 5 9 8 6 7 5 8 5 3 1 2 5 5 4 8 13 17 15 15 15 14 14 12 11 11 11 11 11 10 10 10 9 8 6 4 3 3 3 4 7 6 4 4
5 3 4 4 4 6 6 6 6 6 6 5 5 4 5 7 12 15 15 14 14 13 13 11 10 9 9 10 10 10 10 9 9 8 6 5 3 0 2 3 5 5 4 4
5 6 5 5 7 8 9 7 7 9 7 2 3 6 4 6 10 12 14 14 13 12 11 9 10 10 10 10 10 10 9 9 8 7 7 7 6 4 3 2 3 4 3 3
3 6 6 7 5 4 5 5 5 2 1 2 4 4 1 6 9 11 11 12 12 12 10 10 10 9 8 9 9 8 8 7 8 7 7 7 7 5 5 6 5 4 3 3
5 3 3 6 7 5 5 4 1 4 1 2 3 2 2 11 15 15 15 14 13 12 11 11 10 9 7 7 7 8 7 7 7 7 7 8 7 7 7 6 6 4 3 3
6 5 3 4 7 9 4 2 5 5 3 3 3 4 8 16 18 17 16 15 14 13 12 11 9 9 7 7 6 7 7 7 7 7 6 5 6 6 6 5 6 5 4 4
5 6 4 6 6 7 8 6 5 4 4 3 2 3 5 10 13 14 14 14 12 12 11 10 9 8 7 7 7 7 7 7 7 6 6 5 5 5 5 4 4 3 3 3
3 7 3 2 1 3 5 4 3 5 3 3 1 3 6 8 10 11 12 12 10 9 9 8 8 8 8 8 8 9 8 7 7 6 5 5 5 4 4 4 3 3 2 2
4 7 4 3 6 6 5 5 4 6 5 3 2 4 6 6 8 9 9 10 9 7 7 6 6 6 6 6 7 7 8 8 8 7 7 6 6 6 5 5 4 4 3 3
5 5 5 5 4 1 2 4 4 5 4 2 1 5 7 8 8 9 9 9 8 7 6 6 5 5 5 5 5 6 6 7 7 7 8 8 7 6 6 6 6 6 6 6
6 4 3 4 4 5 4 4 4 4 4 4 3 4 6 6 5 6 6 7 7 8 8 7 6 5 5 5 5 5 6 6 6 7 8 8 7 7 8 8 8 8 8 9
4 5 3 2 4 5 4 4 4 3 3 2 2 4 5 4 3 4 5 6 6 7 8 8 7 6 5 4 4 5 6 6 6 7 7 7 7 8 8 7 7 8 8 7
3 5 4 2 4 2 2 6 5 3 3 4 4 4 2 1 2 3 3 4 5 6 6 7 6 4 3 2 2 3 4 5 6 6 6 6 6 7 7 7 7 7 6 7
4 4 4 3 3 4 6 4 6 5 4 5 5 4 4 4 2 2 1 2 5 6 6 7 6 5 3 1 1 2 3 4 5 5 5 5 6 6 6 6 6 5 5 5
4 5 4 4 3 2 2 4 6 5 4 5 3 1 4 3 2 4 3 1 3 4 4 4 4 3 2 1 1 2 2 3 4 4 4 4 4 5 6 6 5 4 4 4
4 5 4 3 3 6 8 7 5 4 3 5 4 4 5 4 2 4 4 2 3 5 4 5 5 4 3 1 2 2 1 1 1 1 2 3 4 5 5 5 5 4 4 4
1 2 2 3 3 6 4 6 7 4 8 5 6 6 5 5 5 5 3 2 3 4 5 5 6 6 5 2 2 1 1 2 2 1 2 3 4 4 4 5 5 5 5 5
7 5 4 4 3 8 5 8 8 9 4 7 6 6 5 4 3 2 1 2 4 4 5 6 6 6 6 3 1 1 3 3 1 1 2 3 4 4 5 5 5 5 5 6
7 9 7 8 8 6 7 8 7 6 7 6 6 5 4 3 2 1 1 1 3 4 5 5 5 6 6 4 1 1 3 2 1 3 3 4 5 5 4 5 5 5 5 4
3 3 4 2 5 4 5 4 5 6 7 7 6 5 5 4 3 2 1 1 3 4 4 4 5 6 6 5 4 3 3 1 3 4 4 4 5 5 5 4 4 4 4 4
7 5 3 4 4 2 4 5 7 7 7 7 6 6 6 5 3 3 2 1 2 2 3 3 4 5 5 4 4 5 4 3 4 5 5 4 4 4 4 4 3 3 3 2
6 8 8 9 9 9 10 9 9 9 9 8 8 6 5 5 4 3 2 1 1 1 2 3 5 4 4 4 4 5 4 2 4 4 4 3 3 3 3 3 2 4 2 4
Wind_Direction
49 50 49 49 52 70 72 73 38 13 6 8 44 43 38 37 40 35 28 24 20 14 8 16 22 23 21 16 11 8 1 352 352 345 311 247 228 220 212 206 195 190 183 178
55 40 43 63 44 46 50 52 13 331 348 15 70 59 54 46 40 35 27 19 12 9 7 10 14 16 14 9 3 358 351 344 341 327 288 243 225 219 214 207 194 192 183 176
87 10 23 45 33 20 18 41 335 312 347 9 93 61 31 26 28 28 23 15 8 8 4 4 4 4 5 3 357 350 342 336 330 324 307 281 222 189 178 190 189 190 174 162
66 6 32 39 21 5 321 318 315 309 3 322 55 101 17 355 10 13 8 4 357 358 354 355 356 355 355 352 349 345 339 333 330 328 320 294 238 211 199 182 176 165 159 146
75 33 40 29 358 355 300 299 300 288 171 34 13 103 13 356 4 355 352 351 345 349 343 344 346 343 344 344 344 340 337 336 335 336 332 314 275 233 198 171 166 165 166 160
64 43 52 360 333 343 327 350 25 43 68 55 352 88 41 8 347 337 339 338 337 337 333 332 335 337 338 340 340 341 341 342 344 347 354 359 353 0 164 170 169 161 158 150
35 12 3 2 359 356 17 42 32 21 25 23 42 75 60 355 345 333 329 330 332 330 327 328 333 336 338 341 341 340 342 347 352 0 13 19 31 51 72 99 127 129 130 126
83 11 12 19 13 348 12 71 104 116 294 321 38 70 155 358 345 335 331 331 336 337 335 335 333 332 334 335 338 340 344 354 2 12 21 25 34 48 58 64 77 86 94 101
122 94 81 54 27 36 19 12 150 147 21 53 52 54 313 344 347 344 341 340 341 339 340 340 338 337 339 338 341 346 354 6 12 16 24 30 35 48 57 61 65 67 71 86
122 112 38 24 18 13 39 16 52 64 65 36 16 26 339 331 333 334 337 340 340 343 344 346 349 352 353 352 351 353 4 12 14 19 24 31 32 40 46 53 59 58 54 61
87 105 12 22 26 8 6 19 54 73 84 96 24 356 317 308 313 319 324 328 331 338 343 348 351 358 3 5 5 2 3 8 8 10 15 23 27 34 40 42 42 47 47 49
63 101 75 34 334 66 46 25 76 100 59 57 78 303 286 288 297 305 312 318 323 328 335 341 348 359 6 10 10 10 7 5 1 1 9 17 19 26 30 27 20 22 28 24
87 102 95 354 341 2 28 14 66 98 93 66 53 309 299 302 306 313 318 322 325 328 335 341 347 357 4 10 12 8 6 7 6 12 19 25 26 29 29 25 23 28 33 33
98 87 135 160 200 180 71 37 57 87 100 115 251 275 302 321 325 330 332 331 337 344 346 352 350 349 355 4 9 7 9 11 17 21 26 27 22 26 30 33 36 41 48 54
89 97 124 152 156 134 129 113 91 99 149 153 235 259 278 298 304 313 323 338 354 357 359 1 5 0 1 8 10 14 14 14 20 29 32 27 26 31 35 40 42 46 52 57
92 126 134 142 156 140 129 151 134 130 160 189 247 266 252 274 311 329 340 353 360 358 355 358 9 18 16 17 18 24 25 19 27 33 30 27 30 33 35 39 44 48 48 50
92 126 129 187 178 129 205 198 182 180 198 191 220 246 247 286 329 326 343 0 355 351 351 352 357 9 18 31 43 43 33 33 37 33 27 26 30 33 30 39 43 44 44 49
115 111 127 136 140 243 253 200 169 176 216 220 238 252 204 199 245 294 297 7 352 346 347 343 341 351 5 45 76 69 52 45 41 34 26 23 31 33 31 37 39 38 39 45
118 125 112 121 169 277 281 195 179 180 234 233 232 239 160 163 38 338 310 321 324 325 325 322 326 329 0 49 173 103 66 47 41 27 22 24 35 40 37 35 30 29 40 38
61 87 107 125 164 233 240 206 167 127 243 239 174 136 143 129 71 280 281 300 324 324 323 329 335 342 354 322 200 134 123 57 22 355 20 35 47 52 46 37 31 30 41 40
357 36 126 174 220 257 246 147 120 160 231 197 159 150 147 169 201 235 262 319 337 328 326 337 346 341 328 313 189 194 242 257 251 297 43 50 56 63 56 46 38 43 48 47
176 174 202 172 210 253 191 140 175 211 181 149 150 156 159 185 205 207 212 354 354 344 335 341 346 337 332 341 173 245 279 271 251 102 71 64 58 63 64 58 45 40 46 48
185 187 186 187 213 235 180 186 198 157 150 158 159 162 156 155 153 153 135 4 352 347 342 342 346 344 348 358 48 357 308 302 143 114 101 93 77 63 59 63 56 44 39 44
251 151 139 222 259 213 194 178 157 158 159 167 162 157 153 155 152 143 156 344 345 344 344 349 1 1 353 355 14 358 337 5 111 121 122 116 99 79 60 53 51 55 43 40
219 171 170 226 242 189 225 201 171 157 152 153 153 156 159 156 154 162 187 289 332 341 336 355 4 354 346 355 1 356 1 47 97 117 125 125 117 110 86 65 48 54 42 44
195 175 176 212 201 179 206 202 174 159 168 168 163 166 166 162 168 166 197 256 314 340 343 357 357 353 347 356 354 351 357 53 113 124 132 138 139 134 125 111 67 27 24 28